This is the latest recevied weather packets stored in our database for station/object HB9FHL-13. If no packets are shown the sender has not sent any weather packets the latest 10 day(s).
| Time | Temp. | Humidity | Pressure | Rain* | Wind** | Luminosity | Snow |
|---|---|---|---|---|---|---|---|
| 1778160212 | 12.78° C | - | 1012.7 hPa | 0 mm | - | - | - |
| 1778159912 | 13.33° C | - | 1018.2 hPa | 0 mm | - | - | - |
| 1778159608 | 13.33° C | - | 1016.5 hPa | 0 mm | - | - | - |
| 1778159308 | 13.89° C | - | 1014.9 hPa | 0 mm | - | - | - |
| 1778159006 | 13.33° C | - | 1014.7 hPa | 0 mm | - | - | - |
| 1778158704 | 13.33° C | - | 1014.7 hPa | 0 mm | - | - | - |
| 1778158403 | 12.78° C | - | 1015.7 hPa | 0 mm | - | - | - |
| 1778158103 | 13.33° C | - | 1013.7 hPa | 0 mm | - | - | - |
| 1778157802 | 12.78° C | - | 1014.7 hPa | 0 mm | - | - | - |
| 1778157502 | 12.78° C | - | 1016.9 hPa | 0 mm | - | - | - |
| 1778157201 | 12.22° C | - | 1010.7 hPa | 0 mm | - | - | - |
| 1778156901 | 13.33° C | - | 1012.7 hPa | 0 mm | - | - | - |
| 1778156599 | 12.78° C | - | 1018.7 hPa | 0 mm | - | - | - |
| 1778156298 | 12.22° C | - | 1013 hPa | 0 mm | - | - | - |
| 1778155998 | 12.22° C | - | 1014.8 hPa | 0 mm | - | - | - |
| 1778155701 | 12.22° C | - | 1014.6 hPa | 0 mm | - | - | - |
| 1778155397 | 12.78° C | - | 1026.3 hPa | 0 mm | - | - | - |
| 1778155097 | 12.78° C | - | 1010.9 hPa | 0 mm | - | - | - |
| 1778154796 | 12.78° C | - | 1013.5 hPa | 0 mm | - | - | - |
| 1778154496 | 12.78° C | - | 1016.6 hPa | 0 mm | - | - | - |
| 1778154195 | 12.78° C | - | 1016.8 hPa | 0 mm | - | - | - |
| 1778153895 | 13.33° C | - | 1012.2 hPa | 0 mm | - | - | - |
| 1778153594 | 12.78° C | - | 1011.1 hPa | 0 mm | - | - | - |
| 1778153293 | 12.78° C | - | 1015.9 hPa | 0 mm | - | - | - |
| 1778152991 | 12.78° C | - | 1015.3 hPa | 0 mm | - | - | - |
* Rain since midnight (hover to see other rain measurements)
** Current wind speed in m/s (hover to see current wind gust speed)